Location: 22
(39.7117°N, 89.5929°W)
Time: 04:54:46
(UTC-05:00)

Vanguard 1 Rocket - Pass Details

Date: 10 February 2023
Orbit: 652 x 4223 km, 34.3° (Epoch: 26 March)

Event Time Altitude Azimuth Distance (km) Brightness Sun altitude
Rises 08:03:13 0° 186° (S) 3,181 10.5 10.8°
Reaches altitude 10° 08:07:14 10° 152° (SSE) 2,616 10.9 11.5°
Maximum altitude 08:09:16 12° 132° (SE) 2,717 12.1 11.9°
Drops below altitude 10° 08:11:37 10° 113° (ESE) 3,119 12.8 12.2°
Sets 08:17:56 0° 85° (E) 4,917 12.1 13.3°
